Year,Month,Day,Hour,Minute,Value (Times are PST for windspeed in km/hr)
2015,08,27,00,01,5.20
2015,08,27,00,02,5.20
2015,08,27,00,03,5.20
2015,08,27,00,04,4.10
2015,08,27,00,06,4.40
2015,08,27,00,07,4.10
2015,08,27,00,09,4.40
2015,08,27,00,11,5.40
2015,08,27,00,12,4.80
2015,08,27,00,13,4.80
2015,08,27,00,14,3.90
2015,08,27,00,16,2.80
2015,08,27,00,17,3.70
2015,08,27,00,18,4.80
2015,08,27,00,19,4.40
2015,08,27,00,21,4.40
2015,08,27,00,22,5.00
2015,08,27,00,23,4.40
2015,08,27,00,24,4.60
2015,08,27,00,26,3.90
2015,08,27,00,27,3.30
2015,08,27,00,28,2.40
2015,08,27,00,29,3.10
2015,08,27,00,31,3.50
2015,08,27,00,32,3.50
2015,08,27,00,33,3.10
2015,08,27,00,34,3.90
2015,08,27,00,36,4.10
2015,08,27,00,37,3.10
2015,08,27,00,38,3.00
2015,08,27,00,39,3.10
2015,08,27,00,41,3.00
2015,08,27,00,42,3.00
2015,08,27,00,43,2.40
2015,08,27,00,44,2.60
2015,08,27,00,46,2.60
2015,08,27,00,47,2.60
2015,08,27,00,48,2.40
2015,08,27,00,49,2.60
2015,08,27,00,51,2.80
2015,08,27,00,52,2.80
2015,08,27,00,53,2.80
2015,08,27,00,54,2.00
2015,08,27,00,56,2.40
2015,08,27,00,57,2.60
2015,08,27,00,58,3.30
2015,08,27,00,59,3.10
2015,08,27,01,01,2.00
2015,08,27,01,02,2.00
2015,08,27,01,03,1.50
2015,08,27,01,04,1.50
2015,08,27,01,06,0.90
2015,08,27,01,07,0.20
2015,08,27,01,08,0.00
2015,08,27,01,09,0.00
2015,08,27,01,11,0.00
2015,08,27,01,12,0.00
2015,08,27,01,13,0.00
2015,08,27,01,14,0.00
2015,08,27,01,15,0.60
2015,08,27,01,16,0.60
2015,08,27,01,17,0.00
2015,08,27,01,18,0.20
2015,08,27,01,19,0.90
2015,08,27,01,20,1.50
2015,08,27,01,21,1.30
2015,08,27,01,22,1.70
2015,08,27,01,23,2.00
2015,08,27,01,24,2.40
2015,08,27,01,25,3.10
2015,08,27,01,26,3.50
2015,08,27,01,27,3.70
2015,08,27,01,28,4.30
2015,08,27,01,29,4.30
2015,08,27,01,30,4.10
2015,08,27,01,31,4.10
2015,08,27,01,32,3.70
2015,08,27,01,33,3.70
2015,08,27,01,34,4.10
2015,08,27,01,35,2.20
2015,08,27,01,36,2.20
2015,08,27,01,37,1.70
2015,08,27,01,38,2.40
2015,08,27,01,39,2.00
2015,08,27,01,40,1.70
2015,08,27,01,41,1.50
2015,08,27,01,42,2.00
2015,08,27,01,43,2.00
2015,08,27,01,44,1.50
2015,08,27,01,45,1.30
2015,08,27,01,46,2.20
2015,08,27,01,47,2.80
2015,08,27,01,48,3.10
2015,08,27,01,49,3.70
2015,08,27,01,50,5.20
2015,08,27,01,51,5.40
2015,08,27,01,52,6.50
2015,08,27,01,53,5.00
2015,08,27,01,54,4.40
2015,08,27,01,55,6.10
2015,08,27,01,56,6.10
2015,08,27,01,57,6.70
2015,08,27,01,58,5.90
2015,08,27,01,59,5.40
2015,08,27,02,00,5.20
2015,08,27,02,01,5.20
2015,08,27,02,02,5.00
2015,08,27,02,03,4.30
2015,08,27,02,04,3.50
2015,08,27,02,06,3.70
2015,08,27,02,07,5.40
2015,08,27,02,08,3.90
2015,08,27,02,09,5.20
2015,08,27,02,11,5.70
2015,08,27,02,12,5.00
2015,08,27,02,13,5.60
2015,08,27,02,14,4.10
2015,08,27,02,16,5.40
2015,08,27,02,17,3.10
2015,08,27,02,18,3.30
2015,08,27,02,19,2.80
2015,08,27,02,21,3.30
2015,08,27,02,22,3.10
2015,08,27,02,23,2.60
2015,08,27,02,24,2.40
2015,08,27,02,26,2.80
2015,08,27,02,27,2.20
2015,08,27,02,28,1.30
2015,08,27,02,29,1.50
2015,08,27,02,31,2.40
2015,08,27,02,32,3.00
2015,08,27,02,33,1.90
2015,08,27,02,34,1.50
2015,08,27,02,36,0.60
2015,08,27,02,37,1.10
2015,08,27,02,38,3.30
2015,08,27,02,39,3.90
2015,08,27,02,41,2.60
2015,08,27,02,42,2.80
2015,08,27,02,43,2.00
2015,08,27,02,44,2.40
2015,08,27,02,46,4.60
2015,08,27,02,47,4.80
2015,08,27,02,48,5.00
2015,08,27,02,49,5.90
2015,08,27,02,51,4.60
2015,08,27,02,52,5.00
2015,08,27,02,53,4.80
2015,08,27,02,54,3.70
2015,08,27,02,56,2.20
2015,08,27,02,57,3.70
2015,08,27,02,58,3.00
2015,08,27,02,59,3.10
2015,08,27,03,01,4.10
2015,08,27,03,02,4.30
2015,08,27,03,03,4.30
2015,08,27,03,04,3.00
2015,08,27,03,06,3.90
2015,08,27,03,07,3.50
2015,08,27,03,08,3.30
2015,08,27,03,09,3.50
2015,08,27,03,11,3.00
2015,08,27,03,12,2.40
2015,08,27,03,13,2.60
2015,08,27,03,14,3.10
2015,08,27,03,16,3.90
2015,08,27,03,17,5.20
2015,08,27,03,18,5.20
2015,08,27,03,19,5.00
2015,08,27,03,21,4.40
2015,08,27,03,22,3.90
2015,08,27,03,23,5.40
2015,08,27,03,24,5.20
2015,08,27,03,26,2.60
2015,08,27,03,27,1.90
2015,08,27,03,28,3.10
2015,08,27,03,29,2.80
2015,08,27,03,31,3.30
2015,08,27,03,32,3.30
2015,08,27,03,33,3.30
2015,08,27,03,34,3.00
2015,08,27,03,36,1.50
2015,08,27,03,37,0.60
2015,08,27,03,38,0.90
2015,08,27,03,39,1.70
2015,08,27,03,41,0.70
2015,08,27,03,42,2.00
2015,08,27,03,43,2.60
2015,08,27,03,44,2.00
2015,08,27,03,46,1.90
2015,08,27,03,47,1.50
2015,08,27,03,48,2.20
2015,08,27,03,49,2.40
2015,08,27,03,50,0.60
2015,08,27,03,51,0.40
2015,08,27,03,52,0.70
2015,08,27,03,53,0.40
2015,08,27,03,54,0.40
2015,08,27,03,55,1.90
2015,08,27,03,56,2.80
2015,08,27,03,57,2.80
2015,08,27,03,58,2.20
2015,08,27,03,59,3.10
2015,08,27,04,00,3.50
2015,08,27,04,01,3.30
2015,08,27,04,02,2.80
2015,08,27,04,03,3.30
2015,08,27,04,04,3.00
2015,08,27,04,05,2.80
2015,08,27,04,06,3.70
2015,08,27,04,07,4.40
2015,08,27,04,08,5.20
2015,08,27,04,09,4.80
2015,08,27,04,10,4.80
2015,08,27,04,11,5.60
2015,08,27,04,12,5.60
2015,08,27,04,13,5.40
2015,08,27,04,14,4.80
2015,08,27,04,15,4.80
2015,08,27,04,16,4.80
2015,08,27,04,17,4.40
2015,08,27,04,18,4.30
2015,08,27,04,19,4.30
2015,08,27,04,20,4.40
2015,08,27,04,21,4.40
2015,08,27,04,22,4.30
2015,08,27,04,23,3.00
2015,08,27,04,24,2.40
2015,08,27,04,25,2.00
2015,08,27,04,26,2.20
2015,08,27,04,27,2.60
2015,08,27,04,28,2.00
2015,08,27,04,29,1.30
2015,08,27,04,30,1.70
2015,08,27,04,31,1.90
2015,08,27,04,32,2.80
2015,08,27,04,33,1.50
2015,08,27,04,34,2.20
2015,08,27,04,35,1.90
2015,08,27,04,36,1.90
2015,08,27,04,37,2.00
2015,08,27,04,38,0.90
2015,08,27,04,39,3.00
2015,08,27,04,40,1.30
2015,08,27,04,41,1.30
2015,08,27,04,42,3.50
2015,08,27,04,43,2.40
2015,08,27,04,44,2.60
2015,08,27,04,46,1.70
2015,08,27,04,47,0.70
2015,08,27,04,48,1.70
2015,08,27,04,49,1.70
2015,08,27,04,51,3.00
2015,08,27,04,52,2.60
2015,08,27,04,53,3.00
2015,08,27,04,54,1.50
2015,08,27,04,56,1.70
2015,08,27,04,57,2.60
2015,08,27,04,58,2.40
2015,08,27,04,59,5.20
2015,08,27,05,01,8.10
2015,08,27,05,02,9.30
2015,08,27,05,03,9.60
2015,08,27,05,04,8.30
2015,08,27,05,06,7.60
2015,08,27,05,07,7.20
2015,08,27,05,08,6.10
2015,08,27,05,09,5.90
2015,08,27,05,11,7.80
2015,08,27,05,12,10.20
2015,08,27,05,13,9.80
2015,08,27,05,14,9.60
2015,08,27,05,16,9.10
2015,08,27,05,17,8.70
2015,08,27,05,18,7.80
2015,08,27,05,19,6.10
2015,08,27,05,21,6.50
2015,08,27,05,22,5.40
2015,08,27,05,23,4.40
2015,08,27,05,24,5.60
2015,08,27,05,26,5.60
2015,08,27,05,27,4.40
2015,08,27,05,28,5.00
2015,08,27,05,29,5.20
2015,08,27,05,31,3.90
2015,08,27,05,32,2.40
2015,08,27,05,33,2.80
2015,08,27,05,34,2.20
2015,08,27,05,36,3.00
2015,08,27,05,37,3.50
2015,08,27,05,38,3.10
2015,08,27,05,39,3.00
2015,08,27,05,41,2.60
2015,08,27,05,42,2.60
2015,08,27,05,43,2.60
2015,08,27,05,44,2.80
2015,08,27,05,46,2.20
2015,08,27,05,47,3.10
2015,08,27,05,48,3.30
2015,08,27,05,49,2.40
2015,08,27,05,51,1.30
2015,08,27,05,52,0.40
2015,08,27,05,53,0.00
2015,08,27,05,54,0.00
2015,08,27,05,56,0.00
2015,08,27,05,57,0.00
2015,08,27,05,58,0.60
2015,08,27,05,59,1.70
2015,08,27,06,01,2.20
2015,08,27,06,02,2.00
2015,08,27,06,03,2.40
2015,08,27,06,04,1.30
2015,08,27,06,06,0.00
2015,08,27,06,07,0.70
2015,08,27,06,08,0.70
2015,08,27,06,09,1.90
2015,08,27,06,11,3.50
2015,08,27,06,12,3.90
2015,08,27,06,13,3.10
2015,08,27,06,14,2.80
2015,08,27,06,16,2.00
2015,08,27,06,17,2.40
2015,08,27,06,18,2.60
2015,08,27,06,19,3.00
2015,08,27,06,21,3.00
2015,08,27,06,22,3.10
2015,08,27,06,23,2.60
2015,08,27,06,24,2.60
2015,08,27,06,26,4.30
2015,08,27,06,27,4.40
2015,08,27,06,28,3.50
2015,08,27,06,29,3.00
2015,08,27,06,31,2.80
2015,08,27,06,32,3.90
2015,08,27,06,33,4.60
2015,08,27,06,34,4.30
2015,08,27,06,36,5.20
2015,08,27,06,37,5.00
2015,08,27,06,38,4.30
2015,08,27,06,39,5.00
2015,08,27,06,41,5.40
2015,08,27,06,42,6.70
2015,08,27,06,43,5.60
2015,08,27,06,44,5.60
2015,08,27,06,46,3.10
2015,08,27,06,47,3.10
2015,08,27,06,48,2.20
2015,08,27,06,49,4.80
2015,08,27,06,50,4.40
2015,08,27,06,51,3.50
2015,08,27,06,52,3.90
2015,08,27,06,53,3.30
2015,08,27,06,54,3.70
2015,08,27,06,55,3.90
2015,08,27,06,56,2.60
2015,08,27,06,57,1.90
2015,08,27,06,58,2.20
2015,08,27,06,59,4.60
2015,08,27,07,00,5.60
2015,08,27,07,01,5.40
2015,08,27,07,02,5.00
2015,08,27,07,03,5.20
2015,08,27,07,04,4.30
2015,08,27,07,05,4.40
2015,08,27,07,06,4.80
2015,08,27,07,07,4.60
2015,08,27,07,08,3.50
2015,08,27,07,09,3.70
2015,08,27,07,10,3.90
2015,08,27,07,11,3.10
2015,08,27,07,12,3.10
2015,08,27,07,13,3.10
2015,08,27,07,14,2.80
2015,08,27,07,15,3.50
2015,08,27,07,16,3.70
2015,08,27,07,17,4.10
2015,08,27,07,18,3.90
2015,08,27,07,19,2.40
2015,08,27,07,20,3.50
2015,08,27,07,21,3.00
2015,08,27,07,22,2.20
2015,08,27,07,23,2.20
2015,08,27,07,24,4.10
2015,08,27,07,25,4.60
2015,08,27,07,26,4.10
2015,08,27,07,27,3.30
2015,08,27,07,28,2.60
2015,08,27,07,29,0.60
2015,08,27,07,30,0.20
2015,08,27,07,31,0.60
2015,08,27,07,32,0.90
2015,08,27,07,33,1.50
2015,08,27,07,34,2.00
2015,08,27,07,35,2.60
2015,08,27,07,36,2.60
2015,08,27,07,37,3.30
2015,08,27,07,38,3.50
2015,08,27,07,39,3.10
2015,08,27,07,41,2.20
2015,08,27,07,42,3.30
2015,08,27,07,43,3.50
2015,08,27,07,44,3.90
2015,08,27,07,46,5.40
2015,08,27,07,47,5.00
2015,08,27,07,48,3.90
2015,08,27,07,49,3.30
2015,08,27,07,51,2.60
2015,08,27,07,52,1.70
2015,08,27,07,53,1.70
2015,08,27,07,54,1.30
2015,08,27,07,56,0.20
2015,08,27,07,57,0.00
2015,08,27,07,58,0.00
2015,08,27,07,59,0.60
2015,08,27,08,01,0.90
2015,08,27,08,02,1.30
2015,08,27,08,03,2.00
2015,08,27,08,04,2.40
2015,08,27,08,06,2.00
2015,08,27,08,07,2.40
2015,08,27,08,08,2.20
2015,08,27,08,09,2.20
2015,08,27,08,11,2.20
2015,08,27,08,12,2.40
2015,08,27,08,13,2.40
2015,08,27,08,14,2.40
2015,08,27,08,16,2.00
2015,08,27,08,17,2.20
2015,08,27,08,18,3.50
2015,08,27,08,19,3.30
2015,08,27,08,21,3.10
2015,08,27,08,22,2.00
2015,08,27,08,23,2.20
2015,08,27,08,24,2.00
2015,08,27,08,26,3.10
2015,08,27,08,27,2.60
2015,08,27,08,28,3.50
2015,08,27,08,29,3.90
2015,08,27,08,31,4.40
2015,08,27,08,32,3.70
2015,08,27,08,33,3.50
2015,08,27,08,34,3.50
2015,08,27,08,36,4.80
2015,08,27,08,37,4.60
2015,08,27,08,38,4.80
2015,08,27,08,39,5.60
2015,08,27,08,41,4.80
2015,08,27,08,42,6.10
2015,08,27,08,43,5.20
2015,08,27,08,44,4.40
2015,08,27,08,46,5.00
2015,08,27,08,47,4.40
2015,08,27,08,48,3.00
2015,08,27,08,49,3.90
2015,08,27,08,51,4.30
2015,08,27,08,52,3.90
2015,08,27,08,53,5.00
2015,08,27,08,54,4.30
2015,08,27,08,56,3.10
2015,08,27,08,57,2.60
2015,08,27,08,58,2.40
2015,08,27,08,59,2.20
2015,08,27,09,01,1.90
2015,08,27,09,02,2.40
2015,08,27,09,03,2.20
2015,08,27,09,04,3.00
2015,08,27,09,06,2.80
2015,08,27,09,07,3.30
2015,08,27,09,08,3.70
2015,08,27,09,09,3.70
2015,08,27,09,11,5.70
2015,08,27,09,12,5.00
2015,08,27,09,13,3.10
2015,08,27,09,14,3.10
2015,08,27,09,16,3.90
2015,08,27,09,17,3.50
2015,08,27,09,18,3.30
2015,08,27,09,19,3.90
2015,08,27,09,21,4.10
2015,08,27,09,22,3.30
2015,08,27,09,23,3.00
2015,08,27,09,24,2.40
2015,08,27,09,26,2.60
2015,08,27,09,27,1.70
2015,08,27,09,28,2.00
2015,08,27,09,29,1.50
2015,08,27,09,31,1.90
2015,08,27,09,32,2.20
2015,08,27,09,33,2.00
2015,08,27,09,34,2.40
2015,08,27,09,35,2.40
2015,08,27,09,36,1.90
2015,08,27,09,37,3.10
2015,08,27,09,38,2.40
2015,08,27,09,39,2.80
2015,08,27,09,40,2.00
2015,08,27,09,41,1.70
2015,08,27,09,42,2.60
2015,08,27,09,43,2.60
2015,08,27,09,44,3.10
2015,08,27,09,45,2.60
2015,08,27,09,46,2.60
2015,08,27,09,47,2.80
2015,08,27,09,48,1.30
2015,08,27,09,49,1.70
2015,08,27,09,50,2.60
2015,08,27,09,51,2.40
2015,08,27,09,52,3.10
2015,08,27,09,53,1.50
2015,08,27,09,54,2.00
2015,08,27,09,55,3.10
2015,08,27,09,56,3.50
2015,08,27,09,57,2.60
2015,08,27,09,58,2.00
2015,08,27,09,59,1.30
2015,08,27,10,00,2.60
2015,08,27,10,01,2.60
2015,08,27,10,02,2.60
2015,08,27,10,06,2.80
2015,08,27,10,07,3.10
2015,08,27,10,08,2.80
2015,08,27,10,09,2.40
2015,08,27,10,11,3.70
2015,08,27,10,12,3.50
2015,08,27,10,13,2.20
2015,08,27,10,14,1.90
2015,08,27,10,16,2.60
2015,08,27,10,17,2.00
2015,08,27,10,18,1.50
2015,08,27,10,19,1.70
2015,08,27,10,21,2.00
2015,08,27,10,22,1.50
2015,08,27,10,23,1.70
2015,08,27,10,24,2.40
2015,08,27,10,26,3.00
2015,08,27,10,27,2.60
2015,08,27,10,28,2.40
2015,08,27,10,29,3.00
2015,08,27,10,31,2.40
2015,08,27,10,32,2.00
2015,08,27,10,33,2.40
2015,08,27,10,34,1.70
2015,08,27,10,36,3.10
2015,08,27,10,37,2.60
2015,08,27,10,38,2.20
2015,08,27,10,39,2.20
2015,08,27,10,41,2.60
2015,08,27,10,42,3.00
2015,08,27,10,43,2.80
2015,08,27,10,44,1.90
2015,08,27,10,46,3.00
2015,08,27,10,47,3.10
2015,08,27,10,48,2.40
2015,08,27,10,49,3.70
2015,08,27,10,51,3.30
2015,08,27,10,52,3.00
2015,08,27,10,53,3.10
2015,08,27,10,54,3.00
2015,08,27,10,56,3.50
2015,08,27,10,57,4.40
2015,08,27,10,58,3.90
2015,08,27,10,59,3.30
2015,08,27,11,01,2.40
2015,08,27,11,02,3.30
2015,08,27,11,03,3.30
2015,08,27,11,04,2.80
2015,08,27,11,06,2.60
2015,08,27,11,07,3.10
2015,08,27,11,08,3.00
2015,08,27,11,09,2.80
2015,08,27,11,11,2.40
2015,08,27,11,12,2.80
2015,08,27,11,13,3.00
2015,08,27,11,14,3.10
2015,08,27,11,16,4.10
2015,08,27,11,17,3.70
2015,08,27,11,18,4.30
2015,08,27,11,19,3.70
2015,08,27,11,21,3.10
2015,08,27,11,22,3.10
2015,08,27,11,23,4.30
2015,08,27,11,24,2.80
2015,08,27,11,26,3.00
2015,08,27,11,27,3.10
2015,08,27,11,28,2.40
2015,08,27,11,29,1.90
2015,08,27,11,31,3.50
2015,08,27,11,32,3.70
2015,08,27,11,33,4.40
2015,08,27,11,34,4.60
2015,08,27,11,36,5.90
2015,08,27,11,37,6.30
2015,08,27,11,38,5.00
2015,08,27,11,39,4.60
2015,08,27,11,41,4.10
2015,08,27,11,42,3.50
2015,08,27,11,43,3.10
2015,08,27,11,44,4.60
2015,08,27,11,46,7.40
2015,08,27,11,47,7.40
2015,08,27,11,48,5.20
2015,08,27,11,49,3.70
2015,08,27,11,51,5.60
2015,08,27,11,52,6.50
2015,08,27,11,53,5.60
2015,08,27,11,54,2.80
2015,08,27,11,56,2.60
2015,08,27,11,57,2.00
2015,08,27,11,58,4.30
2015,08,27,11,59,3.50
2015,08,27,12,00,3.00
2015,08,27,12,01,4.30
2015,08,27,12,02,4.10
2015,08,27,12,03,2.40
2015,08,27,12,04,3.30
2015,08,27,12,06,2.00
2015,08,27,12,07,3.00
2015,08,27,12,08,3.50
2015,08,27,12,09,3.00
2015,08,27,12,10,3.10
2015,08,27,12,11,3.50
2015,08,27,12,12,3.50
2015,08,27,12,13,2.60
2015,08,27,12,14,2.40
2015,08,27,12,15,4.10
2015,08,27,12,16,4.40
2015,08,27,12,17,4.40
2015,08,27,12,18,3.90
2015,08,27,12,19,3.50
2015,08,27,12,20,3.90
2015,08,27,12,21,4.60
2015,08,27,12,22,6.90
2015,08,27,12,23,5.40
2015,08,27,12,24,5.40
2015,08,27,12,25,6.30
2015,08,27,12,26,6.30
2015,08,27,12,27,6.10
2015,08,27,12,28,5.20
2015,08,27,12,29,5.60
2015,08,27,12,30,5.70
2015,08,27,12,31,5.40
2015,08,27,12,32,5.20
2015,08,27,12,33,5.40
2015,08,27,12,34,6.70
2015,08,27,12,35,6.90
2015,08,27,12,36,7.40
2015,08,27,12,37,6.70
2015,08,27,12,38,6.30
2015,08,27,12,39,5.60
2015,08,27,12,40,5.20
2015,08,27,12,41,5.00
2015,08,27,12,42,5.20
2015,08,27,12,43,4.80
2015,08,27,12,44,5.40
2015,08,27,12,45,6.70
2015,08,27,12,46,6.50
2015,08,27,12,47,5.70
2015,08,27,12,48,5.70
2015,08,27,12,49,5.60
2015,08,27,12,50,6.90
2015,08,27,12,52,6.70
2015,08,27,12,53,7.40
2015,08,27,12,54,6.30
2015,08,27,12,56,6.50
2015,08,27,12,57,4.80
2015,08,27,12,58,7.00
2015,08,27,12,59,6.10
2015,08,27,13,01,7.60
2015,08,27,13,02,7.60
2015,08,27,13,03,7.60
2015,08,27,13,04,7.00
2015,08,27,13,06,5.90
2015,08,27,13,07,4.80
2015,08,27,13,08,3.90
2015,08,27,13,09,5.20
2015,08,27,13,11,4.80
2015,08,27,13,12,4.40
2015,08,27,13,13,5.20
2015,08,27,13,14,5.20
2015,08,27,13,16,3.50
2015,08,27,13,17,4.80
2015,08,27,13,18,3.90
2015,08,27,13,19,4.30
2015,08,27,13,21,5.90
2015,08,27,13,22,6.90
2015,08,27,13,23,5.70
2015,08,27,13,24,6.70
2015,08,27,13,26,7.80
2015,08,27,13,27,8.10
2015,08,27,13,28,8.10
2015,08,27,13,29,6.10
2015,08,27,13,31,7.60
2015,08,27,13,32,7.80
2015,08,27,13,33,7.60
2015,08,27,13,34,8.70
2015,08,27,13,36,8.10
2015,08,27,13,37,8.90
2015,08,27,13,38,8.30
2015,08,27,13,39,9.30
2015,08,27,13,41,7.40
2015,08,27,13,42,5.70
2015,08,27,13,43,5.60
2015,08,27,13,44,4.10
2015,08,27,13,46,6.70
2015,08,27,13,47,5.90
2015,08,27,13,48,6.10
2015,08,27,13,49,4.80
2015,08,27,13,51,5.20
2015,08,27,13,52,4.80
2015,08,27,13,53,5.40
2015,08,27,13,54,4.80
2015,08,27,13,56,5.40
2015,08,27,13,57,4.80
2015,08,27,13,58,4.30
2015,08,27,13,59,4.60
2015,08,27,14,01,3.00
2015,08,27,14,02,2.40
2015,08,27,14,03,3.30
2015,08,27,14,04,3.30
2015,08,27,14,06,4.30
2015,08,27,14,07,3.70
2015,08,27,14,08,5.40
2015,08,27,14,09,5.00
2015,08,27,14,11,5.90
2015,08,27,14,12,5.60
2015,08,27,14,13,5.60
2015,08,27,14,14,5.20
2015,08,27,14,16,4.30
2015,08,27,14,17,3.50
2015,08,27,14,18,4.10
2015,08,27,14,19,3.90
2015,08,27,14,21,4.60
2015,08,27,14,22,3.90
2015,08,27,14,23,4.40
2015,08,27,14,24,3.70
2015,08,27,14,26,3.00
2015,08,27,14,27,4.60
2015,08,27,14,28,5.20
2015,08,27,14,29,4.80
2015,08,27,14,31,7.00
2015,08,27,14,32,7.00
2015,08,27,14,33,6.70
2015,08,27,14,34,5.00
2015,08,27,14,36,7.00
2015,08,27,14,37,7.80
2015,08,27,14,38,8.70
2015,08,27,14,39,6.50
2015,08,27,14,41,5.90
2015,08,27,14,42,7.40
2015,08,27,14,43,6.90
2015,08,27,14,44,6.30
2015,08,27,14,46,8.30
2015,08,27,14,47,7.00
2015,08,27,14,48,6.90
2015,08,27,14,49,5.00
2015,08,27,14,51,8.10
2015,08,27,14,52,7.00
2015,08,27,14,53,5.40
2015,08,27,14,54,5.00
2015,08,27,14,55,7.80
2015,08,27,14,56,8.50
2015,08,27,14,57,12.40
2015,08,27,14,58,9.10
2015,08,27,14,59,8.00
2015,08,27,15,00,7.60
2015,08,27,15,01,7.20
2015,08,27,15,02,5.90
2015,08,27,15,03,7.40
2015,08,27,15,04,7.40
2015,08,27,15,06,7.80
2015,08,27,15,07,8.10
2015,08,27,15,08,9.40
2015,08,27,15,09,10.90
2015,08,27,15,10,9.60
2015,08,27,15,11,7.80
2015,08,27,15,12,7.80
2015,08,27,15,13,5.70
2015,08,27,15,14,5.70
2015,08,27,15,15,7.80
2015,08,27,15,16,6.10
2015,08,27,15,17,8.70
2015,08,27,15,18,7.60
2015,08,27,15,19,9.10
2015,08,27,15,20,7.20
2015,08,27,15,21,10.00
2015,08,27,15,22,12.00
2015,08,27,15,23,8.30
2015,08,27,15,24,10.60
2015,08,27,15,25,11.90
2015,08,27,15,26,9.60
2015,08,27,15,27,10.90
2015,08,27,15,28,12.60
2015,08,27,15,29,11.90
2015,08,27,15,30,13.90
2015,08,27,15,31,14.10
2015,08,27,15,32,7.80
2015,08,27,15,33,10.20
2015,08,27,15,34,8.50
2015,08,27,15,35,9.10
2015,08,27,15,36,9.80
2015,08,27,15,37,9.80
2015,08,27,15,38,12.80
2015,08,27,15,39,11.50
2015,08,27,15,40,10.60
2015,08,27,15,41,9.10
2015,08,27,15,42,7.60
2015,08,27,15,43,8.70
2015,08,27,15,44,6.30
2015,08,27,15,45,7.80
2015,08,27,15,46,8.10
2015,08,27,15,47,8.70
2015,08,27,15,48,8.00
2015,08,27,15,49,9.30
2015,08,27,15,50,8.70
2015,08,27,15,51,8.10
2015,08,27,15,52,8.30
2015,08,27,15,53,9.30
2015,08,27,15,54,6.90
2015,08,27,15,56,5.70
2015,08,27,15,57,7.60
2015,08,27,15,58,8.50
2015,08,27,15,59,5.00
2015,08,27,16,01,4.30
2015,08,27,16,02,5.90
2015,08,27,16,03,5.40
2015,08,27,16,04,4.60
2015,08,27,16,06,7.20
2015,08,27,16,07,6.10
2015,08,27,16,08,5.60
2015,08,27,16,09,4.80
2015,08,27,16,11,5.20
2015,08,27,16,12,5.70
2015,08,27,16,13,7.60
2015,08,27,16,14,6.10
2015,08,27,16,16,3.50
2015,08,27,16,17,4.60
2015,08,27,16,18,4.40
2015,08,27,16,19,6.50
2015,08,27,16,21,4.60
2015,08,27,16,22,4.10
2015,08,27,16,23,5.60
2015,08,27,16,24,5.40
2015,08,27,16,26,4.60
2015,08,27,16,27,3.30
2015,08,27,16,28,4.30
2015,08,27,16,29,3.90
2015,08,27,16,31,4.80
2015,08,27,16,32,6.70
2015,08,27,16,33,6.90
2015,08,27,16,34,7.00
2015,08,27,16,36,6.50
2015,08,27,16,37,5.00
2015,08,27,16,38,5.00
2015,08,27,16,39,5.90
2015,08,27,16,41,5.40
2015,08,27,16,42,5.40
2015,08,27,16,43,4.40
2015,08,27,16,44,4.80
2015,08,27,16,46,5.20
2015,08,27,16,47,5.20
2015,08,27,16,48,4.30
2015,08,27,16,49,5.70
2015,08,27,16,51,4.60
2015,08,27,16,52,4.30
2015,08,27,16,53,5.20
2015,08,27,16,54,4.40
2015,08,27,16,56,5.00
2015,08,27,16,57,4.40
2015,08,27,16,58,5.40
2015,08,27,16,59,6.70
2015,08,27,17,01,5.70
2015,08,27,17,02,7.80
2015,08,27,17,03,7.80
2015,08,27,17,04,5.60
2015,08,27,17,06,4.80
2015,08,27,17,07,4.40
2015,08,27,17,08,5.00
2015,08,27,17,09,5.90
2015,08,27,17,11,4.80
2015,08,27,17,12,6.30
2015,08,27,17,13,5.90
2015,08,27,17,14,4.80
2015,08,27,17,16,5.90
2015,08,27,17,17,6.30
2015,08,27,17,18,5.70
2015,08,27,17,19,8.70
2015,08,27,17,21,5.70
2015,08,27,17,22,3.50
2015,08,27,17,23,4.30
2015,08,27,17,24,4.30
2015,08,27,17,26,5.00
2015,08,27,17,27,4.10
2015,08,27,17,28,4.10
2015,08,27,17,29,4.60
2015,08,27,17,31,3.90
2015,08,27,17,32,5.20
2015,08,27,17,33,4.40
2015,08,27,17,34,4.60
2015,08,27,17,36,6.70
2015,08,27,17,37,6.70
2015,08,27,17,38,4.40
2015,08,27,17,39,5.20
2015,08,27,17,41,4.30
2015,08,27,17,42,5.40
2015,08,27,17,43,6.10
2015,08,27,17,44,4.40
2015,08,27,17,46,3.00
2015,08,27,17,47,3.70
2015,08,27,17,48,6.30
2015,08,27,17,49,3.30
2015,08,27,17,51,2.80
2015,08,27,17,52,3.10
2015,08,27,17,53,2.40
2015,08,27,17,54,3.30
2015,08,27,17,55,3.30
2015,08,27,17,56,4.10
2015,08,27,17,57,5.40
2015,08,27,17,58,4.60
2015,08,27,17,59,4.10
2015,08,27,18,00,5.70
2015,08,27,18,01,5.70
2015,08,27,18,02,5.00
2015,08,27,18,03,5.70
2015,08,27,18,04,6.90
2015,08,27,18,05,6.70
2015,08,27,18,06,5.70
2015,08,27,18,07,5.20
2015,08,27,18,08,4.40
2015,08,27,18,09,5.60
2015,08,27,18,10,4.80
2015,08,27,18,11,4.30
2015,08,27,18,12,5.20
2015,08,27,18,13,3.70
2015,08,27,18,14,5.60
2015,08,27,18,15,6.10
2015,08,27,18,16,5.20
2015,08,27,18,17,5.00
2015,08,27,18,18,3.70
2015,08,27,18,19,4.40
2015,08,27,18,20,3.70
2015,08,27,18,21,3.90
2015,08,27,18,22,4.40
2015,08,27,18,23,4.10
2015,08,27,18,24,3.50
2015,08,27,18,25,3.90
2015,08,27,18,26,3.00
2015,08,27,18,27,3.30
2015,08,27,18,28,4.30
2015,08,27,18,29,3.90
2015,08,27,18,30,3.50
2015,08,27,18,31,5.00
2015,08,27,18,32,7.20
2015,08,27,18,33,5.40
2015,08,27,18,34,5.90
2015,08,27,18,35,4.40
2015,08,27,18,36,5.40
2015,08,27,18,37,6.70
2015,08,27,18,38,5.40
2015,08,27,18,39,5.60
2015,08,27,18,40,6.10
2015,08,27,18,41,6.30
2015,08,27,18,42,7.00
2015,08,27,18,43,6.70
2015,08,27,18,44,5.60
2015,08,27,18,45,5.70
2015,08,27,18,46,5.70
2015,08,27,18,47,7.40
2015,08,27,18,48,6.10
2015,08,27,18,49,4.10
2015,08,27,18,50,5.00
2015,08,27,18,52,5.00
2015,08,27,18,53,5.20
2015,08,27,18,54,5.40
2015,08,27,18,56,3.70
2015,08,27,18,57,4.10
2015,08,27,18,58,4.40
2015,08,27,18,59,5.00
2015,08,27,19,01,5.00
2015,08,27,19,02,4.80
2015,08,27,19,03,4.80
2015,08,27,19,04,4.60
2015,08,27,19,06,4.10
2015,08,27,19,07,5.20
2015,08,27,19,08,5.20
2015,08,27,19,09,3.30
2015,08,27,19,11,4.80
2015,08,27,19,12,6.90
2015,08,27,19,13,6.70
2015,08,27,19,14,6.10
2015,08,27,19,16,6.10
2015,08,27,19,17,5.60
2015,08,27,19,18,5.70
2015,08,27,19,19,5.40
2015,08,27,19,21,5.20
2015,08,27,19,22,5.20
2015,08,27,19,23,7.20
2015,08,27,19,24,6.30
2015,08,27,19,26,5.20
2015,08,27,19,27,3.30
2015,08,27,19,28,5.90
2015,08,27,19,29,6.30
2015,08,27,19,31,7.20
2015,08,27,19,32,8.00
2015,08,27,19,33,6.50
2015,08,27,19,34,6.70
2015,08,27,19,36,6.30
2015,08,27,19,37,5.60
2015,08,27,19,38,5.90
2015,08,27,19,39,7.00
2015,08,27,19,41,10.00
2015,08,27,19,42,11.90
2015,08,27,19,43,8.50
2015,08,27,19,44,9.80
2015,08,27,19,46,6.90
2015,08,27,19,47,6.30
2015,08,27,19,48,4.80
2015,08,27,19,49,4.30
2015,08,27,19,51,5.60
2015,08,27,19,52,5.70
2015,08,27,19,53,4.40
2015,08,27,19,54,3.50
2015,08,27,19,56,6.30
2015,08,27,19,57,5.70
2015,08,27,19,58,4.80
2015,08,27,19,59,4.10
2015,08,27,20,01,4.60
2015,08,27,20,02,3.70
2015,08,27,20,03,4.40
2015,08,27,20,04,6.10
2015,08,27,20,06,6.30
2015,08,27,20,07,5.00
2015,08,27,20,08,5.40
2015,08,27,20,09,4.10
2015,08,27,20,11,7.60
2015,08,27,20,12,8.00
2015,08,27,20,13,7.40
2015,08,27,20,14,7.00
2015,08,27,20,16,6.90
2015,08,27,20,17,7.40
2015,08,27,20,18,6.10
2015,08,27,20,19,5.00
2015,08,27,20,21,6.70
2015,08,27,20,22,7.20
2015,08,27,20,23,7.40
2015,08,27,20,24,7.00
2015,08,27,20,26,7.20
2015,08,27,20,27,7.60
2015,08,27,20,28,5.20
2015,08,27,20,29,6.90
2015,08,27,20,31,7.40
2015,08,27,20,32,6.70
2015,08,27,20,33,9.30
2015,08,27,20,34,9.80
2015,08,27,20,36,7.80
2015,08,27,20,37,9.30
2015,08,27,20,38,11.10
2015,08,27,20,39,8.50
2015,08,27,20,41,5.90
2015,08,27,20,42,6.10
2015,08,27,20,43,8.00
2015,08,27,20,44,8.00
2015,08,27,20,46,7.60
2015,08,27,20,47,8.10
2015,08,27,20,48,8.50
2015,08,27,20,49,8.50
2015,08,27,20,51,8.10
2015,08,27,20,52,8.00
2015,08,27,20,53,7.00
2015,08,27,20,54,8.00
2015,08,27,20,55,7.80
2015,08,27,20,56,6.70
2015,08,27,20,57,6.30
2015,08,27,20,58,4.80
2015,08,27,20,59,6.50
2015,08,27,21,00,6.10
2015,08,27,21,01,6.10
2015,08,27,21,02,7.00
2015,08,27,21,03,8.50
2015,08,27,21,04,9.10
2015,08,27,21,05,8.70
2015,08,27,21,06,8.50
2015,08,27,21,07,9.60
2015,08,27,21,08,10.00
2015,08,27,21,09,11.30
2015,08,27,21,10,10.60
2015,08,27,21,11,11.70